Hlavní strana
METAR-TAF:

METAR-TAF

Letiště :

Fairfield Municipal Airport

Fairfield, Illinois, Spojené státy americké

zeměpisná šířka: 38-22-43N, zeměpisná délka: 088-24-46W, výška: 133 m

Aktuální stav počasí

Zpráva byla vytvořena před 20 minutami, v 21:55 UTC
Severoseverozápadní vítr 6 kt
Teplota 10°C
Vlhkost vzduchu 76%
Tlak 1021 hPa
Viditelnost: 16.1 km
Polojasno ve výšce 1900 ft
Zataženo ve výšce 2800 ft

METAR: KFWC 252155Z AUTO 34006KT 10SM SCT019 OVC028 10/06 A3016 RMK AO1 LTG DSNT SE T00950061

Čas: 17:15 (22:15 UTC)


TAF: chybějící

Stav a předpovědi počasí z více než 4 000 letišť (zprávy METAR a TAF).

Červené a žluté tečky na mapě představují dostupné meteorologické stanice.

Když kurzor umístíte na tečku, zobrazí se název stanice.

Pak kliknutím zobrazíte stav a předpověď počasí.

Chcete-li změnit mapu, kliknutím na zelené tlačítko se znaménkem +mapu přiblížíte, kliknutím na zelené tlačítko se znaménkem – mapu oddálíte a kliknutím na zelené šipky přejdete na sousední mapy.


METAR-TAF: